| time (UTC) | temp F | wind direction | speed MPH | gust MPH | rain 1hr in | rain 24hr in | rain mn in | humidity % | barometer mb |
| 20260906083343 | 68 | 75 | 1.0 | 9.0 | 0.00 | 0.00 | 0.00 | 92 | 1014.9 |
| 20260906082344 | 68 | 46 | 1.0 | 9.0 | 0.00 | 0.00 | 0.00 | 92 | 1015.0 |
| 20260906082243 | 68 | 46 | 0.0 | 9.0 | 0.00 | 0.00 | 0.00 | 92 | 1015.0 |
| 20260906081344 | 68 | 44 | 1.0 | 9.0 | 0.00 | 0.00 | 0.00 | 92 | 1015.0 |
| 20260906080344 | 69 | 52 | 1.0 | 9.0 | 0.00 | 0.00 | 0.00 | 92 | 1014.9 |
| 20260906075343 | 69 | 61 | 1.0 | 9.0 | 0.00 | 0.00 | 0.00 | 92 | 1014.8 |
| 20260906074344 | 69 | 64 | 2.0 | 9.0 | 0.00 | 0.00 | 0.00 | 91 | 1014.8 |
| 20260906073344 | 69 | 34 | 1.0 | 9.0 | 0.00 | 0.00 | 0.00 | 91 | 1014.7 |
| 20260906073242 | 69 | 47 | 1.0 | 9.0 | 0.00 | 0.00 | 0.00 | 91 | 1014.6 |
| 20260906072343 | 69 | 47 | 1.0 | 9.0 | 0.00 | 0.00 | 0.00 | 91 | 1014.6 |
| 20260906071343 | 70 | 61 | 2.0 | 9.0 | 0.00 | 0.00 | 0.00 | 92 | 1014.6 |
| 20260906071244 | 70 | 48 | 2.0 | 9.0 | 0.00 | 0.00 | 0.00 | 92 | 1014.6 |
| 20260906070344 | 70 | 62 | 2.0 | 9.0 | 0.00 | 0.00 | 0.00 | 92 | 1014.7 |
| 20260906065343 | 70 | 41 | 1.0 | 9.0 | 0.00 | 0.00 | 0.00 | 92 | 1014.7 |
| 20260906064344 | 70 | 57 | 1.0 | 9.0 | 0.00 | 0.00 | 0.00 | 92 | 1014.6 |
| 20260906063343 | 70 | 57 | 1.0 | 9.0 | 0.00 | 0.00 | 0.00 | 92 | 1014.6 |
| 20260906062343 | 71 | 46 | 1.0 | 9.0 | 0.00 | 0.00 | 0.00 | 92 | 1014.5 |
| 20260906061344 | 71 | 36 | 1.0 | 9.0 | 0.00 | 0.00 | 0.00 | 91 | 1014.5 |
| 20260906060344 | 71 | 47 | 2.0 | 9.0 | 0.00 | 0.00 | 0.00 | 91 | 1014.4 |
| 20260906055344 | 71 | 89 | 2.0 | 9.0 | 0.00 | 0.00 | 0.00 | 91 | 1014.4 |
| 20260906054343 | 71 | 50 | 1.0 | 9.0 | 0.00 | 0.00 | 0.00 | 91 | 1014.2 |
| 20260906054244 | 71 | 94 | 1.0 | 9.0 | 0.00 | 0.00 | 0.00 | 91 | 1014.2 |
| 20260906053344 | 71 | 69 | 2.0 | 9.0 | 0.00 | 0.00 | 0.00 | 91 | 1014.1 |
| 20260906053244 | 71 | 19 | 2.0 | 9.0 | 0.00 | 0.00 | 0.00 | 92 | 1014.2 |
| 20260906052344 | 71 | 78 | 1.0 | 9.0 | 0.00 | 0.00 | 0.00 | 92 | 1014.1 |
| 20260906051343 | 71 | 38 | 0.0 | 5.0 | 0.00 | 0.00 | 0.00 | 93 | 1014.1 |
| 20260906050342 | 71 | 64 | 1.0 | 4.0 | 0.00 | 0.00 | 0.00 | 92 | 1014.0 |
| 20260906045343 | 72 | 42 | 1.0 | 4.0 | 0.00 | 0.00 | 0.00 | 92 | 1013.9 |
| 20260906044343 | 72 | 34 | 0.0 | 4.0 | 0.00 | 0.00 | 0.00 | 91 | 1013.9 |
| 20260906043344 | 72 | 34 | 0.0 | 4.0 | 0.00 | 0.00 | 0.00 | 91 | 1013.8 |
| 20260906043244 | 72 | 34 | 0.0 | 4.0 | 0.00 | 0.00 | 0.00 | 91 | 1013.8 |
| 20260906042343 | 73 | 34 | 0.0 | 4.0 | 0.00 | 0.00 | 0.00 | 91 | 1013.7 |
| 20260906041343 | 73 | 55 | 1.0 | 4.0 | 0.00 | 0.00 | 0.00 | 91 | 1013.8 |
| 20260906041244 | 73 | 63 | 1.0 | 4.0 | 0.00 | 0.00 | 0.00 | 91 | 1013.8 |
| 20260906040342 | 73 | 45 | 1.0 | 2.0 | 0.00 | 0.00 | 0.00 | 91 | 1013.8 |
| 20260906040246 | 73 | 64 | 1.0 | 2.0 | 0.00 | 0.00 | 0.00 | 91 | 1013.8 |
| 20260906035343 | 73 | 64 | 1.0 | 14.0 | 0.00 | 0.00 | 0.00 | 90 | 1013.8 |
| 20260906034343 | 73 | 53 | 1.0 | 14.0 | 0.00 | 0.00 | 0.00 | 90 | 1013.9 |
| 20260906034244 | 73 | 48 | 1.0 | 14.0 | 0.00 | 0.00 | 0.00 | 90 | 1013.9 |
| 20260906033344 | 73 | 63 | 2.0 | 14.0 | 0.00 | 0.00 | 0.00 | 90 | 1013.9 |
| 20260906032343 | 73 | 54 | 2.0 | 14.0 | 0.00 | 0.00 | 0.00 | 90 | 1013.9 |
| 20260906032243 | 73 | 38 | 1.0 | 14.0 | 0.00 | 0.00 | 0.00 | 90 | 1013.8 |
| 20260906031342 | 73 | 39 | 2.0 | 14.0 | 0.00 | 0.00 | 0.00 | 89 | 1013.6 |
| 20260906031244 | 73 | 47 | 3.0 | 14.0 | 0.00 | 0.00 | 0.00 | 89 | 1013.6 |
| 20260906030343 | 73 | 24 | 2.0 | 14.0 | 0.00 | 0.00 | 0.00 | 89 | 1013.6 |
| 20260906025342 | 73 | 48 | 2.0 | 14.0 | 0.00 | 0.00 | 0.00 | 88 | 1013.7 |
| 20260906024344 | 73 | 24 | 2.0 | 14.0 | 0.00 | 0.00 | 0.00 | 88 | 1013.5 |
| 20260906024242 | 73 | 58 | 2.0 | 14.0 | 0.00 | 0.00 | 0.00 | 88 | 1013.5 |
| 20260906023343 | 73 | 50 | 2.0 | 14.0 | 0.00 | 0.00 | 0.00 | 88 | 1013.4 |
| 20260906022343 | 73 | 52 | 3.0 | 14.0 | 0.00 | 0.00 | 0.00 | 87 | 1013.3 |
| 20260906022243 | 73 | 47 | 3.0 | 14.0 | 0.00 | 0.00 | 0.00 | 87 | 1013.3 |
| 20260906021342 | 74 | 59 | 2.0 | 14.0 | 0.00 | 0.00 | 0.00 | 86 | 1013.3 |
| 20260906020344 | 74 | 28 | 1.0 | 14.0 | 0.00 | 0.00 | 0.00 | 86 | 1013.0 |
| 20260906020243 | 74 | 40 | 2.0 | 14.0 | 0.00 | 0.00 | 0.00 | 86 | 1013.0 |
| 20260906015343 | 75 | 23 | 2.0 | 14.0 | 0.00 | 0.00 | 0.00 | 85 | 1013.1 |
| 20260906015242 | 75 | 52 | 3.0 | 14.0 | 0.00 | 0.00 | 0.00 | 85 | 1013.1 |
| 20260906014342 | 75 | 15 | 2.0 | 14.0 | 0.00 | 0.00 | 0.00 | 84 | 1013.0 |
| 20260906013344 | 76 | 22 | 3.0 | 14.0 | 0.00 | 0.00 | 0.00 | 84 | 1012.7 |
| 20260906013245 | 76 | 13 | 2.0 | 14.0 | 0.00 | 0.00 | 0.00 | 84 | 1012.7 |
| 20260906012344 | 76 | 21 | 2.0 | 14.0 | 0.00 | 0.00 | 0.00 | 83 | 1012.8 |
| 20260906012245 | 76 | 37 | 1.0 | 14.0 | 0.00 | 0.00 | 0.00 | 83 | 1012.8 |
| 20260906011345 | 77 | 57 | 3.0 | 14.0 | 0.00 | 0.00 | 0.00 | 82 | 1012.5 |
| 20260906011245 | 77 | 51 | 3.0 | 14.0 | 0.00 | 0.00 | 0.00 | 82 | 1012.5 |
| 20260906010344 | 77 | 38 | 2.0 | 14.0 | 0.00 | 0.00 | 0.00 | 82 | 1012.3 |
| 20260906010245 | 77 | 0 | 2.0 | 14.0 | 0.00 | 0.00 | 0.00 | 82 | 1012.3 |
| 20260906005343 | 78 | 55 | 1.0 | 14.0 | 0.00 | 0.00 | 0.00 | 81 | 1012.1 |
| 20260906005245 | 78 | 48 | 1.0 | 14.0 | 0.00 | 0.00 | 0.00 | 81 | 1012.1 |
| 20260906004344 | 78 | 15 | 2.0 | 14.0 | 0.00 | 0.00 | 0.00 | 81 | 1012.1 |
| 20260906004245 | 78 | 6 | 1.0 | 14.0 | 0.00 | 0.00 | 0.00 | 81 | 1012.0 |
| 20260906003345 | 79 | 343 | 2.0 | 14.0 | 0.00 | 0.00 | 0.00 | 79 | 1011.9 |
| 20260906003244 | 79 | 337 | 2.0 | 14.0 | 0.00 | 0.00 | 0.00 | 79 | 1011.9 |
| 20260906002344 | 80 | 23 | 1.0 | 14.0 | 0.00 | 0.00 | 0.00 | 78 | 1011.8 |
| 20260906002244 | 80 | 18 | 1.0 | 14.0 | 0.00 | 0.00 | 0.00 | 78 | 1011.8 |
| 20260906001344 | 80 | 23 | 2.0 | 14.0 | 0.00 | 0.00 | 0.00 | 77 | 1012.0 |
| 20260906001245 | 80 | 355 | 2.0 | 14.0 | 0.00 | 0.00 | 0.00 | 77 | 1012.0 |
| 20260906000343 | 81 | 28 | 2.0 | 14.0 | 0.00 | 0.00 | 0.00 | 76 | 1011.8 |
| 20260906000039 | 82 | 47 | 3.0 | 14.0 | 0.00 | 0.00 | 0.00 | 76 | 1011.7 |
| 20260905235344 | 82 | 11 | 5.0 | 14.0 | 0.00 | 0.00 | 0.00 | 75 | 1011.6 |
| 20260905234344 | 83 | 32 | 0.0 | 14.0 | 0.00 | 0.00 | 0.00 | 75 | 1011.6 |
| 20260905234244 | 83 | 358 | 1.0 | 14.0 | 0.00 | 0.00 | 0.00 | 75 | 1011.5 |
| 20260905233344 | 83 | 40 | 1.0 | 14.0 | 0.00 | 0.00 | 0.00 | 75 | 1011.5 |
| 20260905233243 | 83 | 45 | 2.0 | 14.0 | 0.00 | 0.00 | 0.00 | 75 | 1011.4 |
| 20260905232344 | 84 | 27 | 1.0 | 14.0 | 0.00 | 0.00 | 0.00 | 74 | 1011.4 |
| 20260905232245 | 84 | 14 | 1.0 | 14.0 | 0.00 | 0.00 | 0.00 | 73 | 1011.4 |
| 20260905231344 | 84 | 17 | 1.0 | 14.0 | 0.00 | 0.00 | 0.00 | 72 | 1011.4 |
| 20260905231243 | 84 | 27 | 1.0 | 14.0 | 0.00 | 0.00 | 0.00 | 72 | 1011.4 |
| 20260905230344 | 85 | 345 | 1.0 | 14.0 | 0.00 | 0.00 | 0.00 | 72 | 1011.3 |
| 20260905230245 | 85 | 34 | 1.0 | 14.0 | 0.00 | 0.00 | 0.00 | 72 | 1011.4 |
| 20260905225344 | 85 | 339 | 2.0 | 14.0 | 0.00 | 0.00 | 0.00 | 71 | 1011.1 |
| 20260905225245 | 85 | 35 | 3.0 | 14.0 | 0.00 | 0.00 | 0.00 | 71 | 1011.1 |
| 20260905224345 | 86 | 45 | 1.0 | 14.0 | 0.00 | 0.00 | 0.00 | 71 | 1011.1 |
| 20260905224244 | 86 | 92 | 2.0 | 14.0 | 0.00 | 0.00 | 0.00 | 71 | 1011.1 |
| 20260905223345 | 86 | 35 | 3.0 | 14.0 | 0.00 | 0.00 | 0.00 | 70 | 1011.0 |
| 20260905223244 | 86 | 33 | 5.0 | 14.0 | 0.00 | 0.00 | 0.00 | 70 | 1010.9 |
| 20260905222344 | 87 | 357 | 1.0 | 14.0 | 0.00 | 0.00 | 0.00 | 71 | 1010.8 |
| 20260905222245 | 87 | 346 | 2.0 | 14.0 | 0.00 | 0.00 | 0.00 | 71 | 1010.8 |
| 20260905221344 | 87 | 24 | 2.0 | 14.0 | 0.00 | 0.00 | 0.00 | 71 | 1010.6 |
| 20260905221244 | 87 | 0 | 3.0 | 14.0 | 0.00 | 0.00 | 0.00 | 71 | 1010.7 |
| 20260905220345 | 87 | 37 | 3.0 | 14.0 | 0.00 | 0.00 | 0.00 | 71 | 1010.7 |
| 20260905220244 | 88 | 39 | 3.0 | 14.0 | 0.00 | 0.00 | 0.00 | 71 | 1010.5 |
| 20260905215344 | 88 | 61 | 3.0 | 14.0 | 0.00 | 0.00 | 0.00 | 71 | 1010.6 |
| 20260905215244 | 88 | 30 | 2.0 | 14.0 | 0.00 | 0.00 | 0.00 | 72 | 1010.6 |
| 20260905214345 | 88 | 2 | 5.0 | 14.0 | 0.00 | 0.00 | 0.00 | 71 | 1010.6 |
| 20260905214244 | 89 | 28 | 3.0 | 14.0 | 0.00 | 0.00 | 0.00 | 71 | 1010.5 |
| 20260905213343 | 89 | 321 | 2.0 | 14.0 | 0.00 | 0.00 | 0.00 | 71 | 1010.3 |
| 20260905212345 | 89 | 17 | 2.0 | 14.0 | 0.00 | 0.00 | 0.00 | 71 | 1010.2 |
| 20260905212244 | 89 | 69 | 1.0 | 14.0 | 0.00 | 0.00 | 0.00 | 70 | 1010.2 |
| 20260905211346 | 90 | 30 | 2.0 | 14.0 | 0.00 | 0.00 | 0.00 | 71 | 1010.1 |
| 20260905211245 | 90 | 345 | 2.0 | 14.0 | 0.00 | 0.00 | 0.00 | 72 | 1010.1 |
| 20260905210344 | 90 | 18 | 1.0 | 14.0 | 0.00 | 0.00 | 0.00 | 72 | 1010.1 |
| 20260905210245 | 90 | 293 | 1.0 | 14.0 | 0.00 | 0.00 | 0.00 | 71 | 1010.1 |
| 20260905205345 | 91 | 343 | 2.0 | 14.0 | 0.00 | 0.00 | 0.00 | 72 | 1010.1 |
| 20260905205244 | 91 | 13 | 3.0 | 14.0 | 0.00 | 0.00 | 0.00 | 71 | 1010.2 |
| 20260905204343 | 90 | 32 | 1.0 | 14.0 | 0.00 | 0.00 | 0.00 | 71 | 1010.3 |
| 20260905204244 | 90 | 338 | 2.0 | 14.0 | 0.00 | 0.00 | 0.00 | 71 | 1010.3 |
| 20260905203343 | 90 | 316 | 1.0 | 14.0 | 0.00 | 0.00 | 0.00 | 69 | 1010.2 |
| 20260905203244 | 91 | 295 | 2.0 | 14.0 | 0.00 | 0.00 | 0.00 | 69 | 1010.2 |
| 20260905202344 | 91 | 343 | 1.0 | 14.0 | 0.00 | 0.00 | 0.00 | 68 | 1010.2 |
| 20260905202243 | 91 | 327 | 2.0 | 14.0 | 0.00 | 0.00 | 0.00 | 67 | 1010.2 |
| 20260905201344 | 91 | 318 | 2.0 | 14.0 | 0.00 | 0.00 | 0.00 | 68 | 1010.2 |
| 20260905201245 | 91 | 1 | 3.0 | 14.0 | 0.00 | 0.00 | 0.00 | 68 | 1010.3 |
| 20260905200344 | 90 | 54 | 2.0 | 14.0 | 0.00 | 0.00 | 0.00 | 70 | 1010.3 |
| 20260905200243 | 90 | 356 | 2.0 | 14.0 | 0.00 | 0.00 | 0.00 | 72 | 1010.3 |
| 20260905195345 | 89 | 34 | 1.0 | 14.0 | 0.00 | 0.00 | 0.00 | 72 | 1010.3 |
| 20260905195244 | 89 | 34 | 1.0 | 14.0 | 0.00 | 0.00 | 0.00 | 71 | 1010.3 |
| 20260905194345 | 88 | 15 | 1.0 | 14.0 | 0.00 | 0.00 | 0.00 | 70 | 1010.5 |
| 20260905194245 | 88 | 352 | 2.0 | 14.0 | 0.00 | 0.00 | 0.00 | 70 | 1010.5 |
| 20260905193345 | 90 | 53 | 5.0 | 14.0 | 0.00 | 0.00 | 0.00 | 68 | 1010.9 |
| 20260905193244 | 90 | 53 | 3.0 | 14.0 | 0.00 | 0.00 | 0.00 | 68 | 1010.9 |
| 20260905192343 | 91 | 302 | 2.0 | 14.0 | 0.00 | 0.00 | 0.00 | 70 | 1011.1 |
| 20260905192244 | 91 | 3 | 1.0 | 14.0 | 0.00 | 0.00 | 0.00 | 70 | 1011.1 |
| 20260905191345 | 91 | 333 | 1.0 | 14.0 | 0.00 | 0.00 | 0.00 | 67 | 1011.1 |
| 20260905191245 | 91 | 344 | 1.0 | 14.0 | 0.00 | 0.00 | 0.00 | 67 | 1011.1 |
| 20260905190344 | 92 | 276 | 2.0 | 14.0 | 0.00 | 0.00 | 0.00 | 66 | 1010.8 |
| 20260905190245 | 92 | 310 | 3.0 | 14.0 | 0.00 | 0.00 | 0.00 | 66 | 1010.9 |
| 20260905185344 | 93 | 353 | 3.0 | 14.0 | 0.00 | 0.00 | 0.00 | 64 | 1011.1 |
| 20260905185244 | 93 | 318 | 5.0 | 14.0 | 0.00 | 0.00 | 0.00 | 64 | 1011.2 |
| 20260905184345 | 92 | 46 | 1.0 | 14.0 | 0.00 | 0.00 | 0.00 | 68 | 1011.1 |
| 20260905184244 | 92 | 352 | 1.0 | 14.0 | 0.00 | 0.00 | 0.00 | 67 | 1011.2 |
| 20260905183344 | 91 | 192 | 1.0 | 14.0 | 0.00 | 0.00 | 0.00 | 67 | 1011.2 |
| 20260905183244 | 91 | 222 | 1.0 | 14.0 | 0.00 | 0.00 | 0.00 | 66 | 1011.3 |
| 20260905182343 | 91 | 329 | 2.0 | 14.0 | 0.00 | 0.00 | 0.00 | 67 | 1011.6 |
| 20260905182244 | 91 | 342 | 1.0 | 14.0 | 0.00 | 0.00 | 0.00 | 68 | 1011.6 |
| 20260905181344 | 90 | 176 | 1.0 | 14.0 | 0.00 | 0.00 | 0.00 | 68 | 1011.6 |
| 20260905181245 | 90 | 29 | 0.0 | 14.0 | 0.00 | 0.00 | 0.00 | 69 | 1011.7 |
| 20260905180343 | 90 | 206 | 1.0 | 14.0 | 0.00 | 0.00 | 0.00 | 70 | 1011.7 |
| 20260905180243 | 90 | 217 | 1.0 | 14.0 | 0.00 | 0.00 | 0.00 | 69 | 1011.8 |
| 20260905175344 | 90 | 312 | 1.0 | 14.0 | 0.00 | 0.00 | 0.00 | 68 | 1011.9 |
| 20260905175245 | 90 | 325 | 2.0 | 14.0 | 0.00 | 0.00 | 0.00 | 67 | 1012.0 |
| 20260905174343 | 90 | 331 | 1.0 | 14.0 | 0.00 | 0.00 | 0.00 | 67 | 1012.1 |
| 20260905173345 | 89 | 236 | 1.0 | 14.0 | 0.00 | 0.00 | 0.00 | 69 | 1012.2 |
| 20260905173243 | 89 | 245 | 1.0 | 14.0 | 0.00 | 0.00 | 0.00 | 68 | 1012.2 |
| 20260905172343 | 89 | 274 | 1.0 | 14.0 | 0.00 | 0.00 | 0.00 | 69 | 1012.3 |
| 20260905172244 | 89 | 320 | 0.0 | 14.0 | 0.00 | 0.00 | 0.00 | 68 | 1012.3 |
| 20260905171345 | 88 | 253 | 0.0 | 14.0 | 0.00 | 0.00 | 0.00 | 68 | 1012.5 |
| 20260905171244 | 88 | 231 | 1.0 | 14.0 | 0.00 | 0.00 | 0.00 | 69 | 1012.6 |
| 20260905170345 | 88 | 136 | 3.0 | 14.0 | 0.00 | 0.00 | 0.00 | 67 | 1012.5 |
| 20260905165344 | 88 | 199 | 1.0 | 14.0 | 0.00 | 0.00 | 0.00 | 69 | 1012.7 |
| 20260905165243 | 88 | 218 | 1.0 | 14.0 | 0.00 | 0.00 | 0.00 | 68 | 1012.7 |
| 20260905164343 | 87 | 205 | 1.0 | 14.0 | 0.00 | 0.00 | 0.00 | 68 | 1012.7 |
| 20260905164243 | 87 | 180 | 2.0 | 14.0 | 0.00 | 0.00 | 0.00 | 67 | 1012.8 |
| 20260905163345 | 87 | 187 | 1.0 | 14.0 | 0.00 | 0.00 | 0.00 | 68 | 1012.7 |
| 20260905163245 | 87 | 173 | 1.0 | 14.0 | 0.00 | 0.00 | 0.00 | 68 | 1012.7 |
| 20260905162344 | 87 | 165 | 1.0 | 14.0 | 0.00 | 0.00 | 0.00 | 70 | 1012.7 |
| 20260905161344 | 86 | 114 | 0.0 | 14.0 | 0.00 | 0.00 | 0.00 | 71 | 1012.7 |
| 20260905161244 | 86 | 150 | 1.0 | 14.0 | 0.00 | 0.00 | 0.00 | 70 | 1012.7 |
| 20260905160345 | 85 | 200 | 1.0 | 14.0 | 0.00 | 0.00 | 0.00 | 72 | 1012.7 |
| 20260905155346 | 85 | 176 | 1.0 | 14.0 | 0.00 | 0.00 | 0.00 | 72 | 1012.7 |
| 20260905155245 | 85 | 175 | 1.0 | 14.0 | 0.00 | 0.00 | 0.00 | 73 | 1012.8 |
| 20260905154345 | 84 | 183 | 2.0 | 14.0 | 0.00 | 0.00 | 0.00 | 73 | 1012.7 |
| 20260905154244 | 83 | 205 | 1.0 | 14.0 | 0.00 | 0.00 | 0.00 | 73 | 1012.8 |
| 20260905153344 | 83 | 182 | 2.0 | 14.0 | 0.00 | 0.00 | 0.00 | 74 | 1012.8 |
| 20260905153244 | 83 | 174 | 2.0 | 14.0 | 0.00 | 0.00 | 0.00 | 73 | 1012.8 |
| 20260905152344 | 82 | 215 | 1.0 | 14.0 | 0.00 | 0.00 | 0.00 | 75 | 1012.8 |
| 20260905152244 | 82 | 225 | 1.0 | 14.0 | 0.00 | 0.00 | 0.00 | 76 | 1012.8 |
| 20260905151343 | 81 | 173 | 2.0 | 14.0 | 0.00 | 0.00 | 0.00 | 77 | 1012.7 |
| 20260905150344 | 80 | 221 | 3.0 | 14.0 | 0.00 | 0.00 | 0.00 | 77 | 1012.6 |
| 20260905150244 | 80 | 197 | 3.0 | 14.0 | 0.00 | 0.00 | 0.00 | 77 | 1012.6 |
| 20260905145343 | 80 | 167 | 2.0 | 13.0 | 0.00 | 0.00 | 0.00 | 79 | 1012.8 |
| 20260905145243 | 80 | 177 | 2.0 | 13.0 | 0.00 | 0.00 | 0.00 | 79 | 1012.9 |
| 20260905144345 | 79 | 168 | 1.0 | 13.0 | 0.00 | 0.00 | 0.00 | 81 | 1013.0 |
| 20260905143345 | 79 | 174 | 2.0 | 13.0 | 0.00 | 0.00 | 0.00 | 82 | 1012.9 |
| 20260905142344 | 79 | 168 | 1.0 | 13.0 | 0.00 | 0.00 | 0.00 | 82 | 1012.8 |
| 20260905142243 | 79 | 173 | 1.0 | 13.0 | 0.00 | 0.00 | 0.00 | 82 | 1012.8 |
| 20260905141344 | 79 | 175 | 2.0 | 13.0 | 0.00 | 0.00 | 0.00 | 83 | 1012.6 |
| 20260905140343 | 78 | 192 | 1.0 | 13.0 | 0.00 | 0.00 | 0.00 | 81 | 1012.7 |
| 20260905140244 | 78 | 196 | 2.0 | 13.0 | 0.00 | 0.00 | 0.00 | 80 | 1012.6 |
| 20260905135346 | 78 | 204 | 1.0 | 13.0 | 0.00 | 0.00 | 0.00 | 81 | 1012.5 |
| 20260905135244 | 78 | 184 | 2.0 | 13.0 | 0.00 | 0.00 | 0.00 | 81 | 1012.5 |
| 20260905134344 | 78 | 170 | 5.0 | 13.0 | 0.00 | 0.00 | 0.00 | 81 | 1012.4 |
| 20260905134244 | 78 | 193 | 3.0 | 13.0 | 0.00 | 0.00 | 0.00 | 82 | 1012.4 |
| 20260905133344 | 78 | 183 | 5.0 | 13.0 | 0.00 | 0.00 | 0.00 | 83 | 1012.4 |
| 20260905133243 | 78 | 182 | 5.0 | 13.0 | 0.00 | 0.00 | 0.00 | 84 | 1012.5 |
| 20260905132345 | 77 | 154 | 3.0 | 13.0 | 0.00 | 0.00 | 0.00 | 83 | 1012.7 |
| 20260905132244 | 78 | 157 | 2.0 | 13.0 | 0.00 | 0.00 | 0.00 | 83 | 1012.7 |
| 20260905131344 | 78 | 143 | 2.0 | 13.0 | 0.00 | 0.00 | 0.00 | 81 | 1012.7 |
| 20260905131244 | 78 | 175 | 3.0 | 13.0 | 0.00 | 0.00 | 0.00 | 81 | 1012.7 |
| 20260905130343 | 78 | 170 | 1.0 | 13.0 | 0.00 | 0.00 | 0.00 | 82 | 1012.7 |
| 20260905130244 | 78 | 183 | 2.0 | 13.0 | 0.00 | 0.00 | 0.00 | 82 | 1012.7 |
| 20260905125343 | 77 | 177 | 2.0 | 13.0 | 0.00 | 0.00 | 0.00 | 83 | 1012.7 |
| 20260905124344 | 77 | 186 | 2.0 | 13.0 | 0.00 | 0.00 | 0.00 | 87 | 1012.7 |
| 20260905124244 | 77 | 185 | 5.0 | 13.0 | 0.00 | 0.00 | 0.00 | 87 | 1012.6 |
| 20260905123344 | 77 | 161 | 5.0 | 13.0 | 0.00 | 0.00 | 0.00 | 89 | 1012.6 |
| 20260905122343 | 77 | 155 | 2.0 | 8.0 | 0.00 | 0.00 | 0.00 | 91 | 1012.5 |
| 20260905121344 | 76 | 102 | 1.0 | 7.0 | 0.00 | 0.00 | 0.00 | 94 | 1012.3 |
| 20260905120344 | 76 | 103 | 2.0 | 7.0 | 0.00 | 0.00 | 0.00 | 94 | 1012.1 |
| 20260905120245 | 76 | 112 | 1.0 | 7.0 | 0.00 | 0.00 | 0.00 | 94 | 1012.1 |
| 20260905115343 | 76 | 241 | 1.0 | 2.0 | 0.00 | 0.00 | 0.00 | 94 | 1012.0 |
| 20260905114343 | 75 | 241 | 1.0 | 1.0 | 0.00 | 0.00 | 0.00 | 94 | 1011.9 |
| 20260905113344 | 76 | 241 | 0.0 | 1.0 | 0.00 | 0.00 | 0.00 | 94 | 1011.9 |
| 20260905113243 | 76 | 241 | 0.0 | 1.0 | 0.00 | 0.00 | 0.00 | 94 | 1011.9 |
| 20260905112343 | 76 | 241 | 0.0 | 1.0 | 0.00 | 0.00 | 0.00 | 94 | 1011.7 |
| 20260905112244 | 76 | 241 | 0.0 | 1.0 | 0.00 | 0.00 | 0.00 | 94 | 1011.7 |
| 20260905111343 | 76 | 241 | 0.0 | 1.0 | 0.00 | 0.00 | 0.00 | 94 | 1011.6 |
| 20260905111244 | 76 | 241 | 0.0 | 1.0 | 0.00 | 0.00 | 0.00 | 94 | 1011.5 |
| 20260905110344 | 76 | 241 | 0.0 | 1.0 | 0.00 | 0.00 | 0.00 | 94 | 1011.4 |
| 20260905110243 | 76 | 241 | 0.0 | 1.0 | 0.00 | 0.00 | 0.00 | 94 | 1011.4 |
| 20260905105343 | 76 | 241 | 0.0 | 1.0 | 0.00 | 0.00 | 0.00 | 94 | 1011.3 |
| 20260905104343 | 76 | 241 | 0.0 | 1.0 | 0.00 | 0.00 | 0.00 | 94 | 1011.4 |
| 20260905104243 | 76 | 241 | 0.0 | 1.0 | 0.00 | 0.00 | 0.00 | 94 | 1011.4 |
| 20260905103343 | 76 | 241 | 0.0 | 1.0 | 0.00 | 0.00 | 0.00 | 94 | 1011.4 |
| 20260905102343 | 76 | 241 | 0.0 | 1.0 | 0.00 | 0.00 | 0.00 | 94 | 1011.3 |
| 20260905102244 | 76 | 241 | 0.0 | 1.0 | 0.00 | 0.00 | 0.00 | 94 | 1011.4 |
| 20260905101343 | 76 | 241 | 0.0 | 1.0 | 0.00 | 0.00 | 0.00 | 94 | 1011.3 |
| 20260905101244 | 76 | 241 | 0.0 | 1.0 | 0.00 | 0.00 | 0.00 | 94 | 1011.3 |
| 20260905100344 | 76 | 241 | 0.0 | 1.0 | 0.00 | 0.00 | 0.00 | 93 | 1011.5 |
| 20260905095343 | 76 | 241 | 0.0 | 1.0 | 0.00 | 0.00 | 0.00 | 93 | 1011.6 |
| 20260905094343 | 76 | 241 | 0.0 | 1.0 | 0.00 | 0.00 | 0.00 | 93 | 1011.6 |
| 20260905093344 | 76 | 241 | 0.0 | 1.0 | 0.00 | 0.00 | 0.00 | 92 | 1011.7 |
| 20260905092344 | 76 | 241 | 0.0 | 1.0 | 0.00 | 0.00 | 0.00 | 92 | 1011.6 |
| 20260905091343 | 77 | 241 | 0.0 | 1.0 | 0.00 | 0.00 | 0.00 | 92 | 1011.5 |
| 20260905090344 | 77 | 241 | 0.0 | 1.0 | 0.00 | 0.00 | 0.00 | 91 | 1011.5 |
| 20260905090244 | 77 | 241 | 0.0 | 1.0 | 0.00 | 0.00 | 0.00 | 91 | 1011.5 |
| 20260905085344 | 77 | 241 | 0.0 | 1.0 | 0.00 | 0.00 | 0.00 | 91 | 1011.5 |
| 20260905084343 | 77 | 241 | 0.0 | 1.0 | 0.00 | 0.00 | 0.00 | 91 | 1011.6 |